Regional Weather Roundup
Issued by NWS

Home | Current Version | Previous Version | Graphics & Text | Print | Product List | Glossary Off
Versions: 1 2 3 4 5 6 7 8 9 10 11 12 13 14 15 16 17 18 19 20 21 22 23 24 25 26 27 28 29 30 31 32 33 34 35 36 37 38 39 40 41 42 43 44 45 46 47 48 49 50

000
ASUS43 KMKX 300400
RWRWI

WISCONSIN REGIONAL WEATHER ROUNDUP
NATIONAL WEATHER SERVICE MILWAUKEE/SULLIVAN WI
1100 PM CDT MON JUN 29 2015

NOTE: "FAIR" INDICATES FEW OR NO CLOUDS BELOW 12,000 FEET WITH NO
SIGNIFICANT WEATHER AND/OR OBSTRUCTIONS TO VISIBILITY.

WIZ001-002-006>008-014>016-023>028-300500-
NORTHWEST WISCONSIN

CITY           SKY/WX    TMP DP  RH WIND       PRES   REMARKS
SUPERIOR ARPT  MOCLDY    63  61  93 CALM      29.83R
ASHLAND        CLOUDY    63  61  93 N7        29.84R
HAYWARD        CLOUDY    63  60  90 CALM      29.85R
SIREN          FOG       60  59  97 CALM      29.83R VSB 1
CUMBERLAND     CLEAR     59  57  94 W5        29.83R FOG
RICE LAKE      CLEAR     60  58  93 CALM      29.84R FOG
CHETEK         CLEAR     59  59  99 CALM      29.83R FOG
LADYSMITH      PTCLDY    58  57  96 N3        29.85R FOG
EAU CLAIRE     CLEAR     57  55  93 CALM      29.82R FOG
MENOMONIE      CLEAR     62  60  96 W3        29.82S
NEW RICHMOND   CLEAR     59  59 100 CALM      29.83F FOG
OSCEOLA        PTCLDY    60  60 100 SW3       29.86R
$$

WIZ003>005-009-010-017-018-300500-
NORTH CENTRAL WISCONSIN

CITY           SKY/WX    TMP DP  RH WIND       PRES   REMARKS
MANITOWISH WTR PTCLDY    58  58 100 W5        29.82R
ARBOR VITAE    MOCLDY    62  60  94 N5        29.81R
WOODRUFF       MOCLDY    62  60  94 N5        29.81R
RHINELANDER    MOCLDY    60  58  92 CALM      29.81R FOG
EAGLE RIVER    LGT RAIN  60  60  99 CALM      29.80S
LAND O LAKES   CLOUDY    60  59  96 CALM      29.82S
PHILLIPS       PTCLDY    58  58 100 CALM      29.81R FOG
TOMAHAWK       CLOUDY    54  53  97 W3        29.81R FOG
MEDFORD        CLEAR     57  56  99 CALM      29.81R FOG
MERRILL        PTCLDY    58  58 100 W3        29.81R
$$

WIZ029-030-035-036-043>047-300500-
CENTRAL WISCONSIN

CITY           SKY/WX    TMP DP  RH WIND       PRES   REMARKS
WAUSAU         PTCLDY    61  58  90 NW8       29.79R
MOSINEE        NOT AVBL
MARSHFIELD     PTCLDY    59  55  87 NW3       29.81R FOG
STEVENS POINT  MOCLDY    57  56  96 CALM      29.80R
WAUPACA        MOCLDY    62  62  98 CALM      29.78R
WAUTOMA        NOT AVBL
WISC RAPIDS    MOCLDY    59  57  93 W5        29.82R
CAMP DOUGLAS   MOCLDY    59  59 100 N3        29.81R
$$

WIZ011>013-019>022-031-037>040-048>050-300500-
NORTHEAST WISCONSIN

CITY           SKY/WX    TMP DP  RH WIND       PRES   REMARKS
ANTIGO         PTCLDY    57  57 100 N5        29.80R
SHAWANO        MOCLDY    64  61  91 W3        29.76F
OCONTO         CLOUDY    64  64 100 NE3       29.75F
STURGEON BAY   CLOUDY    63  55  77 SW8       29.79R
GREEN BAY      CLOUDY    65  63  93 CALM      29.76F
MANITOWOC      NOT AVBL
APPLETON       MOCLDY    63  57  82 CALM      29.78R
CLINTONVILLE   MOCLDY   N/A N/A N/A CALM      29.76S HAZE
OSHKOSH        MOCLDY    63  59  87 CALM      29.77R
$$

WIZ032>034-041-042-053>061-300500-
SOUTHWEST WISCONSIN

CITY           SKY/WX    TMP DP  RH WIND       PRES   REMARKS
LA CROSSE      CLOUDY    63  60  90 W5        29.82R
SPARTA         MOCLDY    59  58  96 CALM      29.82R FOG
VIROQUA        CLOUDY    60  60 100 SW5       29.83R
BOSCOBEL       CLOUDY    63  61  93 SW5       29.82R
PRAIRIE DU CHI CLOUDY    62  61  96 S3        29.82F
PLATTEVILLE    CLOUDY    64  63  97 W6        29.82R
$$

WIZ056-057-062-063-064-067-068-300500-
SOUTH CENTRAL WISCONSIN

CITY           SKY/WX    TMP DP  RH WIND       PRES   REMARKS
REEDSBURG      MOCLDY    61  59  94 SW3       29.80R
BARABOO/DELLS  MOCLDY    60  58  94 CALM      29.81R
LONE ROCK      NOT AVBL
MINERAL POINT  CLOUDY    63  61  94 CALM      29.81R
MADISON        MOCLDY    61  58  90 N5        29.79R
MIDDLETON      MOCLDY    63  62  97 N3        29.81R
WATERTOWN      CLOUDY    63  63 100 CALM      29.78S
MONROE         CLOUDY    61  61 100 S6        29.80F
JANESVILLE     LGT RAIN  63  61  94 S3        29.78F
$$

WIZ051-052-058>065-066-070>072-300500-
SOUTHEAST WISCONSIN

CITY           SKY/WX    TMP DP  RH WIND       PRES   REMARKS
MILWAUKEE      MOCLDY    63  60  90 S8        29.78F
WAUKESHA       DRIZZLE   63  61  94 CALM      29.79F
MILWAUKEE/TIMM MOCLDY    66  59  77 S5        29.78F
RACINE         CLOUDY    63  61  93 S7        29.79F FOG
BURLINGTON     MOCLDY    60  59  97 CALM      29.78F FOG
KENOSHA        PTCLDY    64  61  90 S5        29.78F FOG
FOND DU LAC    MOCLDY    64  60  87 SW5       29.77F
SHEBOYGAN      MOCLDY    63  60  90 S6        29.77S
WEST BEND      CLOUDY    64  61  88 CALM      29.78S
JUNEAU         CLOUDY    62  60  94 CALM      29.79S
$$

LSZ147-162-300500-
LAKE SUPERIOR

STATION/POSITION TIME  TEMP    WIND        PRES    WAVE
                       AIR SEA DIR/SP/G            HT/PER
                 (UTC) (F)     (DEG/KT/KT) (MB)    (FT/S)
W MID LAKE BUOY  0250   47 38   10/  6/  6 1009.7R   0
DEVILS ISLAND    0300   59      20/  4/  4 1010.2R
SAXON HARBOR     0300   64      20/  6/  9 1009.5R
$$

LMZ867-665-643>646-300500-
LAKE MICHIGAN

STATION/POSITION TIME  TEMP    WIND        PRES    WAVE
                       AIR SEA DIR/SP/G            HT/PER
                 (UTC) (F)     (DEG/KT/KT) (MB)    (FT/S)
CHAMBERS ISLAND  0300   66      CALM  /  2 1007.8S
S GREEN BAY BUOY 0300   70 71  220/ 10/ 14 1009.1
N MID LAKE BUOY  0250   54 49  210/ 10/ 12 1008.4R   1/ 3
NORTHPORT PIER   0300   65      CALM  /  3 1008.1R
ALGOMA LAKESHORE 0325          220/ 10/ 11   N/A
KEWAUNEE LAKESHO 0300   60     180/ 10/ 12 1007.5R
SHEBOYGAN LAKESH 0300   60     180/ 12/ 13 1008.6R
PORT WASHINGTON  0300   63     180/  7/ 10 1009.1R
ATWATER BUOY     0300   62 60  170/ 10/ 12 1010.1R
MILWAUKEE LAKESH 0300   62     150/  5/  6   N/A
KENOSHA   LAKESH 0300   62     170/  7/  9 1009.1R
$$

TC  - TEMPERATURE IN CELSIUS
VSB - VISIBILITY IN STATUTE MILES
WCI - WIND CHILL INDEX
HX  - HEAT INDEX




USA.gov is the U.S. government's official web portal to all federal, state and local government web resources and services.